Flag for U.S.A. Weather past 2 weeks in Lowell, Massachusetts, U.S.A.

Now
73 °F

Clear.


Feels Like: 77 °F
Forecast: 65 / 89 °F
Wind: 9 mph from South

Location: Hanscom Field

Current Time: Aug 2, 2015 at 11:11:05 PM

Latest Report: Aug 2, 2015 at 9:56 PM


Visibility: 10 mi

Pressure: 29.90 "Hg

Humidity: 57%

Dew point: 57 °F

Location of LowellLocation

Historic Weather in Lowell — Graph

°F

Lowell temperature yesterday

Maximum temperature yesterday: 86 °F (at 2:56 PM)
Minimum temperature yesterday: 61 °F (at 1:56 AM)
Average temperature yesterday: 73 °F

Past Weeks' High & Low Weather Summary

 TemperatureHumidityPressure
High92 °F (Jul 29, 3:56 PM)100% (Jul 27, 6:04 AM)30.08 "Hg (Jul 27, 6:04 AM)
Low54 °F (Jul 25, 4:56 AM)31% (Jul 31, 3:56 PM)29.56 "Hg (Jul 21, 6:56 PM)
Average74 °F70%29.86 "Hg
* Reported Jul 18 9:56 PM — Aug 2 9:56 PM, Lowell, Weather by CustomWeather, © 2015

Note: Actual official high and low records may vary slightly from our data, if they occured in-between our weather recording intervals... More about our weather records

Advertising

Lowell weather history for previous 24 hours

 ConditionsComfort  
Time TempWeatherWind HumidityBarometerVisibility
9:56 PM
Sun, Aug 2
73 °FClear.9 mph57%29.90 "Hg10 mi
8:56 PM74 °FSunny.5 mph56%29.90 "Hg10 mi
7:56 PM76 °FSunny.9 mph50%29.88 "Hg10 mi
6:56 PM81 °FPassing clouds.9 mph41%29.87 "Hg10 mi
5:56 PM84 °FScattered clouds.7 mph32%29.88 "Hg10 mi
4:56 PM84 °FScattered clouds.9 mph35%29.89 "Hg10 mi
3:56 PM85 °FScattered clouds.12 mph32%29.89 "Hg10 mi
2:56 PM85 °FPassing clouds.10 mph34%29.89 "Hg10 mi
1:56 PM84 °FScattered clouds.9 mph33%29.90 "Hg10 mi
12:56 PM81 °FScattered clouds.10 mph39%29.91 "Hg10 mi
11:56 AM82 °FPassing clouds.10 mph40%29.92 "Hg10 mi
10:56 AM80 °FSunny.9 mph39%29.92 "Hg10 mi
9:56 AM79 °FSunny.7 mph44%29.92 "Hg10 mi
8:56 AM73 °FSunny.6 mph55%29.91 "Hg10 mi
7:56 AM67 °FSunny.7 mph68%29.91 "Hg10 mi
6:56 AM61 °FSunny.No wind81%29.90 "Hg10 mi
5:56 AM56 °FClear.No wind90%29.88 "Hg10 mi
4:56 AM58 °FClear.3 mph84%29.86 "Hg10 mi
3:56 AM60 °FClear.No wind78%29.85 "Hg10 mi
2:56 AM62 °FClear.3 mph78%29.85 "Hg10 mi
1:56 AM63 °FClear.6 mph78%29.85 "Hg10 mi
12:56 AM64 °FPassing clouds.6 mph84%29.84 "Hg10 mi
11:56 PM
Sat, Aug 1
66 °FPassing clouds.7 mph81%29.84 "Hg10 mi
Weather by CustomWeather, © 2015

See weather overviewHow to use our weather pages